Airport Information

KEAT - Pangborn Field Airport

KEAT 251142Z AUTO 23005KT 10SM BKN017 06/04 A3014 RMK AO2 T00560044


  • General Information

  • Coordinates: N 47°23'52"/ W 120°12'21"
  • Location: N/A
  • Surveyed Elevation: 1249 MSL

Operations

Flow Name Active Runways Conditions

Green background denotes normal operations.


Common Frequencies

Callsign Frequency Position Name

More at the Document Center


Charts